^^
Saratoga-Weather Station Historical Data
Daily Summary for September 24, 2020 Units:  English    Metric   Both
Daily Weekly Monthly Yearly Custom
  High: Low: Average:
Temperature: 72.1 °F 58.3 °F 64.9 °F
Dew Point: 55.2 °F 49.8 °F 52.9 °F
Humidity: 85% 48% 66%
Wind Speed: 10.1mph 0mph 2.6mph
Wind Gust: 15mph - -
Wind- - West
Pressure: 30.1 in 30 in -
Precipitation: 0 in    
Historical Graphs
 
 
Tabular Data for September 24, 2020
Time Temperature Dew Point Pressure Wind Wind Speed Wind Gust Humidity Rainfall Rate (Hourly) solar
00:02 63.3 °F 54.9 °F 30.1 in WSW 0.9 mph 3 mph 74% 0 in 0 W/m2
00:07 63.1 °F 55 °F 30.1 in Calm   1 mph 75% 0 in 0 W/m2
00:12 63.1 °F 55 °F 30.1 in WSW 0.9 mph 1 mph 75% 0 in 0 W/m2
00:17 63.1 °F 55 °F 30.1 in Calm   1 mph 75% 0 in 0 W/m2
00:22 63.1 °F 55 °F 30.1 in WSW 0.9 mph 2 mph 75% 0 in 0 W/m2
00:27 63.1 °F 55 °F 30.1 in Calm   1 mph 75% 0 in 0 W/m2
00:32 63 °F 55.2 °F 30.1 in Calm   1 mph 76% 0 in 0 W/m2
00:37 63 °F 55.2 °F 30.1 in Calm     76% 0 in 0 W/m2
00:42 63 °F 55.2 °F 30.1 in Calm   1 mph 76% 0 in 0 W/m2
00:47 62.8 °F 55 °F 30.1 in Calm     76% 0 in 0 W/m2
00:52 62.8 °F 55 °F 30.1 in Calm     76% 0 in 0 W/m2
00:57 62.8 °F 55 °F 30.1 in Calm     76% 0 in 0 W/m2
01:02 62.6 °F 55.2 °F 30.1 in Calm     77% 0 in 0 W/m2
01:07 62.4 °F 55 °F 30.1 in Calm     77% 0 in 0 W/m2
01:12 62.4 °F 55 °F 30.1 in Calm     77% 0 in 0 W/m2
01:17 62.2 °F 54.9 °F 30.1 in Calm     77% 0 in 0 W/m2
01:22 62.2 °F 55.2 °F 30.1 in WSW 0.9 mph 1 mph 78% 0 in 0 W/m2
01:27 62.1 °F 55 °F 30.1 in Calm     78% 0 in 0 W/m2
01:32 61.9 °F 54.9 °F 30.1 in Calm     78% 0 in 0 W/m2
01:37 61.7 °F 55 °F 30.1 in Calm     79% 0 in 0 W/m2
01:42 61.5 °F 54.9 °F 30.1 in Calm     79% 0 in 0 W/m2
01:47 61.3 °F 54.9 °F 30.1 in Calm     79% 0 in 0 W/m2
01:52 61.3 °F 54.9 °F 30.1 in Calm     79% 0 in 0 W/m2
01:57 61.2 °F 54.9 °F 30.1 in Calm     80% 0 in 0 W/m2
02:02 61.2 °F 54.9 °F 30.1 in Calm     80% 0 in 0 W/m2
02:07 61.2 °F 54.9 °F 30.1 in WSW 0.9 mph 1 mph 80% 0 in 0 W/m2
02:12 61.2 °F 54.9 °F 30.1 in Calm     80% 0 in 0 W/m2
02:17 61.2 °F 54.9 °F 30 in Calm     80% 0 in 0 W/m2
02:22 61.2 °F 54.7 °F 30 in Calm     79% 0 in 0 W/m2
02:27 61.2 °F 54.9 °F 30 in Calm     80% 0 in 0 W/m2
02:32 61 °F 54.7 °F 30 in Calm     80% 0 in 0 W/m2
02:37 61 °F 54.7 °F 30 in Calm     80% 0 in 0 W/m2
02:42 60.8 °F 54.9 °F 30 in Calm     81% 0 in 0 W/m2
02:47 60.6 °F 54.7 °F 30 in Calm     81% 0 in 0 W/m2
02:52 60.6 °F 54.7 °F 30 in Calm     81% 0 in 0 W/m2
02:57 60.6 °F 54.7 °F 30 in Calm     81% 0 in 0 W/m2
03:02 60.4 °F 54.9 °F 30 in Calm     82% 0 in 0 W/m2
03:07 60.4 °F 54.9 °F 30 in Calm   1 mph 82% 0 in 0 W/m2
03:12 60.4 °F 54.9 °F 30 in Calm     82% 0 in 0 W/m2
03:17 60.3 °F 54.7 °F 30 in Calm     82% 0 in 0 W/m2
03:22 60.3 °F 54.7 °F 30 in West 0.9 mph 2 mph 82% 0 in 0 W/m2
03:27 60.3 °F 54.3 °F 30 in Calm   1 mph 81% 0 in 0 W/m2
03:32 60.3 °F 54.3 °F 30 in WSW 2 mph 3 mph 81% 0 in 0 W/m2
03:37 60.4 °F 54.3 °F 30 in WNW 0.9 mph 2 mph 80% 0 in 0 W/m2
03:42 60.4 °F 54.3 °F 30 in West 0.9 mph 2 mph 80% 0 in 0 W/m2
03:47 60.6 °F 54.5 °F 30 in WSW 0.9 mph 4 mph 80% 0 in 0 W/m2
03:52 60.6 °F 54.1 °F 30 in West 0.9 mph 6 mph 79% 0 in 0 W/m2
03:57 60.8 °F 54.3 °F 30 in West 0.9 mph 3 mph 79% 0 in 0 W/m2
04:02 60.8 °F 54.3 °F 30 in Calm   6 mph 79% 0 in 0 W/m2
04:07 60.8 °F 54.3 °F 30 in Calm   2 mph 79% 0 in 0 W/m2
04:12 60.6 °F 53.8 °F 30 in Calm   3 mph 78% 0 in 0 W/m2
04:17 60.4 °F 53.6 °F 30 in WSW 0.9 mph 2 mph 78% 0 in 0 W/m2
04:22 60.4 °F 53.6 °F 30 in WSW 2 mph 3 mph 78% 0 in 0 W/m2
04:27 60.4 °F 54 °F 30 in West 2 mph 7 mph 79% 0 in 0 W/m2
04:32 60.3 °F 53.4 °F 30 in WNW 6 mph 6 mph 78% 0 in 0 W/m2
04:37 60.4 °F 53.6 °F 30 in WNW 0.9 mph 3 mph 78% 0 in 0 W/m2
04:42 60.4 °F 53.2 °F 30 in West 4 mph 4 mph 77% 0 in 0 W/m2
04:47 60.4 °F 53.2 °F 30 in WSW 2 mph 4 mph 77% 0 in 0 W/m2
04:52 60.4 °F 53.2 °F 30 in West 2.9 mph 4 mph 77% 0 in 0 W/m2
04:57 60.4 °F 53.2 °F 30 in West 4 mph 7 mph 77% 0 in 0 W/m2
05:02 60.6 °F 53.4 °F 30 in WNW 2 mph 3 mph 77% 0 in 0 W/m2
05:07 60.6 °F 53.4 °F 30 in West 2.9 mph 7 mph 77% 0 in 0 W/m2
05:12 60.6 °F 53.4 °F 30 in SW 0.9 mph 3 mph 77% 0 in 0 W/m2
05:17 60.4 °F 53.6 °F 30 in West 2 mph 4 mph 78% 0 in 0 W/m2
05:22 60.4 °F 53.6 °F 30 in West 2 mph 3 mph 78% 0 in 0 W/m2
05:27 60.6 °F 53.8 °F 30 in West 2 mph 6 mph 78% 0 in 0 W/m2
05:32 60.6 °F 54.1 °F 30 in NW 2 mph 4 mph 79% 0 in 0 W/m2
05:37 60.4 °F 54.3 °F 30 in West 2 mph 6 mph 80% 0 in 0 W/m2
05:42 60.3 °F 54.1 °F 30 in West 2.9 mph 4 mph 80% 0 in 0 W/m2
05:47 60.1 °F 54.3 °F 30 in WSW 2.9 mph 4 mph 81% 0 in 0 W/m2
05:52 59.7 °F 54.1 °F 30 in West 2 mph 4 mph 82% 0 in 0 W/m2
05:57 59.5 °F 54.3 °F 30 in West 0.9 mph 3 mph 83% 0 in 0 W/m2
06:02 59.5 °F 54.3 °F 30 in WNW 2.9 mph 4 mph 83% 0 in 0 W/m2
06:07 59.2 °F 54.3 °F 30 in WSW 0.9 mph 3 mph 84% 0 in 0 W/m2
06:12 59 °F 54.1 °F 30 in West 2 mph 5 mph 84% 0 in 0 W/m2
06:17 58.8 °F 54 °F 30 in WSW 2 mph 4 mph 84% 0 in 0 W/m2
06:22 58.6 °F 54.1 °F 30 in West 2.9 mph 3 mph 85% 0 in 0 W/m2
06:27 58.6 °F 54.1 °F 30 in West 2 mph 3 mph 85% 0 in 0 W/m2
06:33 58.6 °F 54.1 °F 30 in WSW 0.9 mph 3 mph 85% 0 in 0 W/m2
06:38 58.5 °F 54 °F 30 in West 2 mph 4 mph 85% 0 in 0 W/m2
06:43 58.5 °F 53.6 °F 30 in West 0.9 mph 2 mph 84% 0 in 0 W/m2
06:48 58.5 °F 53.6 °F 30 in WSW 2.9 mph 3 mph 84% 0 in 0 W/m2
06:53 58.5 °F 53.6 °F 30 in West 0.9 mph 2 mph 84% 0 in 5 W/m2
06:59 58.3 °F 53.4 °F 30 in West 0.9 mph 2 mph 84% 0 in 9 W/m2
07:04 58.3 °F 53.4 °F 30 in West 0.9 mph 4 mph 84% 0 in 12 W/m2
07:09 58.3 °F 53.4 °F 30 in West 2.9 mph 3 mph 84% 0 in 16 W/m2
07:14 58.5 °F 53.6 °F 30 in West 4 mph 6 mph 84% 0 in 12 W/m2
07:19 58.5 °F 53.6 °F 30 in WSW 0.9 mph 4 mph 84% 0 in 16 W/m2
07:24 58.6 °F 53.8 °F 30 in West 0.9 mph 6 mph 84% 0 in 26 W/m2
07:29 58.6 °F 53.8 °F 30 in West 2.9 mph 4 mph 84% 0 in 44 W/m2
07:34 58.6 °F 53.8 °F 30 in West 0.9 mph 4 mph 84% 0 in 39 W/m2
07:39 58.8 °F 54 °F 30 in WNW 2.9 mph 4 mph 84% 0 in 46 W/m2
07:44 59 °F 54.1 °F 30 in WNW 2.9 mph 4 mph 84% 0 in 77 W/m2
07:49 59.4 °F 54.1 °F 30 in WNW 2 mph 4 mph 83% 0 in 42 W/m2
07:54 59.5 °F 54 °F 30 in WNW 2 mph 4 mph 82% 0 in 35 W/m2
07:59 59.7 °F 54.1 °F 30 in West 2.9 mph 7 mph 82% 0 in 56 W/m2
08:04 60.1 °F 54.3 °F 30 in NW 2.9 mph 4 mph 81% 0 in 67 W/m2
08:09 60.1 °F 54.3 °F 30 in West 4 mph 4 mph 81% 0 in 42 W/m2
08:14 60.3 °F 54.3 °F 30 in Calm   3 mph 81% 0 in 60 W/m2
08:19 60.3 °F 54.3 °F 30 in WSW 2 mph 4 mph 81% 0 in 102 W/m2
08:24 60.3 °F 54.1 °F 30 in WNW 2 mph 4 mph 80% 0 in 77 W/m2
08:29 60.4 °F 54.3 °F 30 in WSW 2.9 mph 8 mph 80% 0 in 79 W/m2
08:34 60.6 °F 54.1 °F 30 in WSW 2 mph 6 mph 79% 0 in 91 W/m2
08:39 60.6 °F 54.1 °F 30 in West 2.9 mph 8 mph 79% 0 in 97 W/m2
08:44 60.8 °F 54.3 °F 30 in West 4 mph 7 mph 79% 0 in 160 W/m2
08:49 60.8 °F 54.3 °F 30 in West 4 mph 10 mph 79% 0 in 123 W/m2
08:54 60.8 °F 54.7 °F 30 in West 2.9 mph 3 mph 80% 0 in 137 W/m2
08:59 60.8 °F 54.7 °F 30 in WNW 2 mph 10 mph 80% 0 in 188 W/m2
09:04 61 °F 54.7 °F 30 in SSW 2 mph 4 mph 80% 0 in 232 W/m2
09:09 61.2 °F 54.7 °F 30 in WNW 2 mph 4 mph 79% 0 in 269 W/m2
09:14 61.5 °F 54.3 °F 30 in WSW 4.9 mph 8 mph 77% 0 in 202 W/m2
09:19 61.5 °F 54 °F 30 in WNW 2 mph 3 mph 76% 0 in 281 W/m2
09:24 61.9 °F 54.7 °F 30 in West 6 mph 7 mph 77% 0 in 162 W/m2
09:29 61.9 °F 54.3 °F 30 in WNW 2 mph 6 mph 76% 0 in 156 W/m2
09:34 62.1 °F 54.3 °F 30 in NW 6.9 mph 7 mph 76% 0 in 153 W/m2
09:39 61.9 °F 54.3 °F 30 in West 6 mph 7 mph 76% 0 in 315 W/m2
09:44 62.1 °F 54.3 °F 30 in NW 6 mph 9 mph 76% 0 in 260 W/m2
09:49 62.2 °F 54.5 °F 30 in WNW 2 mph 4 mph 76% 0 in 404 W/m2
09:54 62.4 °F 54.7 °F 30 in SW 0.9 mph 10 mph 76% 0 in 378 W/m2
09:59 62.8 °F 54.7 °F 30 in SW 2 mph 6 mph 75% 0 in 257 W/m2
10:04 63 °F 54.5 °F 30 in West 4 mph 8 mph 74% 0 in 322 W/m2
10:09 63 °F 53.8 °F 30 in WSW 4 mph 5 mph 72% 0 in 283 W/m2
10:14 63 °F 53.8 °F 30 in NNW 4 mph 7 mph 72% 0 in 148 W/m2
10:19 63.1 °F 54 °F 30 in WNW 4 mph 4 mph 72% 0 in 211 W/m2
10:24 63 °F 53.4 °F 30 in WSW 2.9 mph 4 mph 71% 0 in 199 W/m2
10:29 63.1 °F 53.2 °F 30 in WNW 4 mph 5 mph 70% 0 in 469 W/m2
10:34 63.7 °F 53.8 °F 30 in WNW 2.9 mph 6 mph 70% 0 in 457 W/m2
10:39 64 °F 53.6 °F 30 in WNW 2 mph 3 mph 69% 0 in 250 W/m2
10:44 64 °F 53.2 °F 30 in West 8.1 mph 8 mph 68% 0 in 362 W/m2
10:49 64 °F 52.9 °F 30 in WSW 8.1 mph 10 mph 67% 0 in 190 W/m2
10:54 64.2 °F 53.1 °F 30 in WNW 6.9 mph 12 mph 67% 0 in 253 W/m2
10:59 64.6 °F 52.9 °F 30 in WNW 4 mph 6 mph 66% 0 in 332 W/m2
11:04 64.9 °F 52.9 °F 30 in SW 2.9 mph 6 mph 65% 0 in 366 W/m2
11:09 65.1 °F 53.4 °F 30 in NNW 4 mph 4 mph 66% 0 in 691 W/m2
11:14 65.8 °F 53.8 °F 30 in WNW 2.9 mph 6 mph 65% 0 in 740 W/m2
11:19 66.4 °F 53.8 °F 30 in West 0.9 mph 11 mph 64% 0 in 178 W/m2
11:24 66.6 °F 52.7 °F 30 in WNW 4 mph 6 mph 61% 0 in 773 W/m2
11:29 66.7 °F 52.3 °F 30 in WNW 8.9 mph 12 mph 60% 0 in 814 W/m2
11:34 66.2 °F 52.3 °F 30 in West 2.9 mph 6 mph 61% 0 in 186 W/m2
11:40 66.2 °F 52.3 °F 30 in NW 4.9 mph 12 mph 61% 0 in 308 W/m2
11:45 66.4 °F 52.5 °F 30 in WSW 8.1 mph 9 mph 61% 0 in 287 W/m2
11:50 66.6 °F 52.7 °F 30 in SW 4 mph 8 mph 61% 0 in 294 W/m2
11:55 66.7 °F 52.9 °F 30 in WSW 8.1 mph 8 mph 61% 0 in 253 W/m2
12:00 66.4 °F 52.5 °F 30 in WSW 10.1 mph 10 mph 61% 0 in 262 W/m2
12:05 66 °F 52.7 °F 30 in West 2 mph 8 mph 62% 0 in 279 W/m2
12:10 66.6 °F 52.7 °F 30 in West 4 mph 6 mph 61% 0 in 643 W/m2
12:15 66.7 °F 52.3 °F 30 in WSW 4.9 mph 9 mph 60% 0 in 258 W/m2
12:20 66.6 °F 51.8 °F 30 in West 2.9 mph 8 mph 59% 0 in 360 W/m2
12:25 66.4 °F 51.6 °F 30 in West 8.9 mph 11 mph 59% 0 in 441 W/m2
12:30 67.1 °F 51.8 °F 30 in NW 6.9 mph 8 mph 58% 0 in 784 W/m2
12:35 68 °F 51.3 °F 30 in NW 4.9 mph 12 mph 55% 0 in 1000 W/m2
12:41 67.6 °F 50.4 °F 30 in SW 2.9 mph 7 mph 54% 0 in 258 W/m2
12:46 67.3 °F 51.1 °F 30 in NW 4 mph 12 mph 56% 0 in 287 W/m2
12:51 67.3 °F 51.1 °F 30 in NW 10.1 mph 10 mph 56% 0 in 396 W/m2
12:56 67.3 °F 51.4 °F 30 in NW 2 mph 8 mph 57% 0 in 341 W/m2
13:01 67.5 °F 51.6 °F 30 in West 4 mph 10 mph 57% 0 in 403 W/m2
13:06 67.6 °F 51.8 °F 30 in WNW 4 mph 11 mph 57% 0 in 394 W/m2
13:11 67.5 °F 51.6 °F 30 in WNW 4 mph 9 mph 57% 0 in 591 W/m2
13:16 68 °F 51.8 °F 30 in West 6 mph 11 mph 56% 0 in 740 W/m2
13:21 68.5 °F 52.2 °F 30 in WNW 10.1 mph 12 mph 56% 0 in 838 W/m2
13:26 68.4 °F 51.6 °F 30 in West 8.1 mph 8 mph 55% 0 in 1095 W/m2
13:31 68.4 °F 51.6 °F 30 in NNW 4 mph 10 mph 55% 0 in 404 W/m2
13:36 68.5 °F 51.3 °F 30 in NNW 4.9 mph 10 mph 54% 0 in 459 W/m2
13:41 68.5 °F 51.3 °F 30 in WNW 2.9 mph 8 mph 54% 0 in 353 W/m2
13:46 69.3 °F 52 °F 30 in North 2 mph 8 mph 54% 0 in 1146 W/m2
13:51 69.4 °F 51.6 °F 30 in SW 4 mph 8 mph 53% 0 in 373 W/m2
13:56 69.4 °F 51.6 °F 30 in WSW 2.9 mph 11 mph 53% 0 in 1013 W/m2
14:01 69.6 °F 52.2 °F 30 in WNW 4 mph 6 mph 54% 0 in 942 W/m2
14:07 69.4 °F 52.2 °F 30 in NW 2 mph 11 mph 54% 0 in 302 W/m2
14:12 69.6 °F 52.7 °F 30 in West 8.9 mph 11 mph 55% 0 in 287 W/m2
14:17 69.3 °F 52 °F 30 in WNW 4 mph 13 mph 54% 0 in 401 W/m2
14:22 69.4 °F 51.1 °F 30 in West 0.9 mph 11 mph 52% 0 in 1044 W/m2
14:27 69.4 °F 51.1 °F 30 in WNW 6.9 mph 10 mph 52% 0 in 508 W/m2
14:32 69.8 °F 51.4 °F 30 in West 8.1 mph 10 mph 52% 0 in 392 W/m2
14:37 69.6 °F 51.3 °F 30 in West 2 mph 10 mph 52% 0 in 492 W/m2
14:42 70.3 °F 51.8 °F 30 in SW 10.1 mph 15 mph 52% 0 in 1004 W/m2
14:47 70.5 °F 52 °F 30 in NW 4 mph 12 mph 52% 0 in 411 W/m2
14:52 70.2 °F 52.2 °F 30 in West 4 mph 4 mph 53% 0 in 274 W/m2
14:57 69.8 °F 52 °F 30 in North 0.9 mph 12 mph 53% 0 in 364 W/m2
15:02 70 °F 52 °F 30 in WNW 2 mph 3 mph 53% 0 in 206 W/m2
15:07 70 °F 51.6 °F 30 in WNW 6.9 mph 7 mph 52% 0 in 195 W/m2
15:12 69.6 °F 51.8 °F 30 in West 2.9 mph 8 mph 53% 0 in 292 W/m2
15:17 69.6 °F 52.2 °F 30 in WSW 6.9 mph 8 mph 54% 0 in 265 W/m2
15:22 69.4 °F 52.2 °F 30 in West 6.9 mph 8 mph 54% 0 in 197 W/m2
15:27 69.3 °F 52 °F 30 in SW 4.9 mph 7 mph 54% 0 in 246 W/m2
15:32 69.3 °F 52 °F 30 in WSW 2 mph 6 mph 54% 0 in 403 W/m2
15:37 69.6 °F 51.8 °F 30 in West 2.9 mph 9 mph 53% 0 in 362 W/m2
15:42 70 °F 52.5 °F 30 in West 2.9 mph 7 mph 54% 0 in 369 W/m2
15:47 70.5 °F 52.5 °F 30 in NNW 2.9 mph 8 mph 53% 0 in 840 W/m2
15:52 70.9 °F 52.3 °F 30 in West 2.9 mph 4 mph 52% 0 in 536 W/m2
15:57 71.2 °F 52.7 °F 30 in WSW 2.9 mph 4 mph 52% 0 in 587 W/m2
16:02 71.2 °F 51.6 °F 30 in West 2 mph 8 mph 50% 0 in 213 W/m2
16:07 70.9 °F 51.8 °F 30 in West 2 mph 3 mph 51% 0 in 339 W/m2
16:12 70.9 °F 52.3 °F 30 in West 2.9 mph 3 mph 52% 0 in 341 W/m2
16:17 70.9 °F 51.8 °F 30 in WNW 6 mph 6 mph 51% 0 in 373 W/m2
16:23 70.9 °F 51.3 °F 30 in North 2.9 mph 4 mph 50% 0 in 401 W/m2
16:28 71.2 °F 51.1 °F 30 in WNW 4 mph 5 mph 49% 0 in 531 W/m2
16:33 72.1 °F 52 °F 30 in West 2 mph 3 mph 49% 0 in 849 W/m2
16:38 72.1 °F 52 °F 30 in South 2 mph 6 mph 49% 0 in 206 W/m2
16:43 71.8 °F 51.6 °F 30 in West 2.9 mph 8 mph 49% 0 in 220 W/m2
16:48 72 °F 51.3 °F 30 in WSW 2.9 mph 9 mph 48% 0 in 775 W/m2
16:53 72 °F 51.8 °F 30 in West 2.9 mph 4 mph 49% 0 in 155 W/m2
16:58 72 °F 51.3 °F 30 in West 6.9 mph 10 mph 48% 0 in 153 W/m2
17:03 71.8 °F 51.6 °F 30 in WNW 6.9 mph 7 mph 49% 0 in 642 W/m2
17:08 71.2 °F 50.5 °F 30 in West 8.1 mph 9 mph 48% 0 in 146 W/m2
17:13 70.9 °F 50.2 °F 30 in WNW 4 mph 7 mph 48% 0 in 91 W/m2
17:18 70.5 °F 50.4 °F 30 in WNW 2 mph 8 mph 49% 0 in 123 W/m2
17:23 70.5 °F 50.4 °F 30 in WNW 2 mph 4 mph 49% 0 in 176 W/m2
17:28 70.3 °F 50.4 °F 30 in West 6.9 mph 7 mph 49% 0 in 207 W/m2
17:33 70.5 °F 49.8 °F 30 in WSW 2.9 mph 7 mph 48% 0 in 188 W/m2
17:38 70.5 °F 50.4 °F 30 in WSW 4.9 mph 5 mph 49% 0 in 163 W/m2
17:43 70.9 °F 50.7 °F 30 in WSW 4 mph 6 mph 49% 0 in 172 W/m2
17:48 70.9 °F 50.7 °F 30 in WSW 6.9 mph 8 mph 49% 0 in 227 W/m2
17:53 70.9 °F 50.7 °F 30 in North 4 mph 9 mph 49% 0 in 206 W/m2
17:58 70.5 °F 50.4 °F 30 in WNW 8.9 mph 9 mph 49% 0 in 104 W/m2
18:03 70.9 °F 50.7 °F 30 in West 6 mph 9 mph 49% 0 in 422 W/m2
18:08 71.2 °F 50.5 °F 30 in WNW 8.1 mph 9 mph 48% 0 in 120 W/m2
18:13 70.9 °F 50.7 °F 30 in West 2.9 mph 6 mph 49% 0 in 132 W/m2
18:18 70.7 °F 50.5 °F 30 in WNW 2 mph 9 mph 49% 0 in 148 W/m2
18:23 70.5 °F 50.9 °F 30 in West 2.9 mph 4 mph 50% 0 in 246 W/m2
18:28 70.5 °F 50.4 °F 30 in West 6 mph 7 mph 49% 0 in 135 W/m2
18:33 70.3 °F 50.9 °F 30 in WSW 4 mph 8 mph 50% 0 in 125 W/m2
18:38 70.3 °F 50.9 °F 30 in West 4 mph 6 mph 50% 0 in 128 W/m2
18:43 70.3 °F 50.9 °F 30 in West 2 mph 7 mph 50% 0 in 134 W/m2
18:48 70.3 °F 51.4 °F 30 in Calm   6 mph 51% 0 in 95 W/m2
18:53 70.2 °F 51.3 °F 30 in West 2 mph 5 mph 51% 0 in 100 W/m2
18:58 70.2 °F 51.3 °F 30 in NW 4 mph 8 mph 51% 0 in 100 W/m2
19:03 70.2 °F 51.8 °F 30 in West 2.9 mph 4 mph 52% 0 in 107 W/m2
19:08 70 °F 51.6 °F 30 in West 2.9 mph 5 mph 52% 0 in 95 W/m2
19:13 70 °F 51.6 °F 30 in WSW 2.9 mph 3 mph 52% 0 in 81 W/m2
19:18 70 °F 51.1 °F 30 in WNW 2 mph 5 mph 51% 0 in 179 W/m2
19:23 70 °F 51.6 °F 30 in WSW 2 mph 5 mph 52% 0 in 47 W/m2
19:28 70 °F 51.6 °F 30 in SW 0.9 mph 4 mph 52% 0 in 90 W/m2
19:33 69.6 °F 51.8 °F 30 in West 0.9 mph 2 mph 53% 0 in 35 W/m2
19:38 69.4 °F 51.6 °F 30 in West 2.9 mph 4 mph 53% 0 in 35 W/m2
19:43 69.1 °F 51.3 °F 30 in West 0.9 mph 4 mph 53% 0 in 39 W/m2
19:48 68.9 °F 51.6 °F 30 in West 2 mph 3 mph 54% 0 in 30 W/m2
19:53 68.7 °F 52 °F 30 in West 0.9 mph 4 mph 55% 0 in 23 W/m2
19:58 68.5 °F 51.8 °F 30 in West 2.9 mph 3 mph 55% 0 in 23 W/m2
20:03 68.4 °F 51.6 °F 30 in West 4 mph 4 mph 55% 0 in 18 W/m2
20:08 68.4 °F 51.6 °F 30 in WNW 0.9 mph 1 mph 55% 0 in 14 W/m2
20:13 68.4 °F 51.6 °F 30 in WSW 0.9 mph 3 mph 55% 0 in 11 W/m2
20:18 68.4 °F 51.6 °F 30 in West 0.9 mph 2 mph 55% 0 in 5 W/m2
20:23 68.2 °F 51.8 °F 30 in SW 0.9 mph 2 mph 56% 0 in 5 W/m2
20:29 68 °F 51.8 °F 30 in Calm   1 mph 56% 0 in 0 W/m2
20:34 67.8 °F 51.6 °F 30 in West 0.9 mph 2 mph 56% 0 in 0 W/m2
20:39 67.8 °F 52 °F 30 in Calm   3 mph 57% 0 in 0 W/m2
20:44 67.6 °F 51.8 °F 30 in WNW 0.9 mph 2 mph 57% 0 in 0 W/m2
20:49 67.6 °F 51.8 °F 30 in West 2 mph 3 mph 57% 0 in 0 W/m2
20:54 67.6 °F 51.8 °F 30 in SW 2 mph 4 mph 57% 0 in 0 W/m2
20:59 67.6 °F 51.8 °F 30 in West 2 mph 3 mph 57% 0 in 0 W/m2
21:04 67.6 °F 51.8 °F 30 in SW 0.9 mph 3 mph 57% 0 in 0 W/m2
21:09 67.5 °F 51.6 °F 30 in WSW 4 mph 5 mph 57% 0 in 0 W/m2
21:14 67.5 °F 51.6 °F 30 in WSW 2.9 mph 3 mph 57% 0 in 0 W/m2
21:19 67.5 °F 51.6 °F 30 in West 2 mph 3 mph 57% 0 in 0 W/m2
21:24 67.5 °F 51.6 °F 30 in WSW 2 mph 3 mph 57% 0 in 0 W/m2
21:29 67.5 °F 51.6 °F 30 in WNW 0.9 mph 4 mph 57% 0 in 0 W/m2
21:34 67.3 °F 51.4 °F 30 in West 2 mph 3 mph 57% 0 in 0 W/m2
21:39 67.3 °F 52 °F 30 in WSW 2 mph 6 mph 58% 0 in 0 W/m2
21:44 66.9 °F 51.6 °F 30 in West 2 mph 3 mph 58% 0 in 0 W/m2
21:49 66.9 °F 51.6 °F 30 in West 2.9 mph 6 mph 58% 0 in 0 W/m2
21:54 66.7 °F 52 °F 30 in West 2 mph 3 mph 59% 0 in 0 W/m2
21:59 66.7 °F 52 °F 30 in WSW 2.9 mph 3 mph 59% 0 in 0 W/m2
22:04 66.6 °F 51.8 °F 30 in West 2 mph 4 mph 59% 0 in 0 W/m2
22:09 66.6 °F 51.8 °F 30 in West 0.9 mph 3 mph 59% 0 in 0 W/m2
22:14 66.6 °F 51.8 °F 30 in West 0.9 mph 4 mph 59% 0 in 0 W/m2
22:19 66.4 °F 52.2 °F 30 in West 0.9 mph 4 mph 60% 0 in 0 W/m2
22:24 66.4 °F 52.2 °F 30 in West 2.9 mph 5 mph 60% 0 in 0 W/m2
22:29 66.2 °F 52 °F 30 in West 0.9 mph 3 mph 60% 0 in 0 W/m2
22:34 66 °F 52.2 °F 30 in WNW 0.9 mph 6 mph 61% 0 in 0 W/m2
22:39 65.8 °F 52 °F 30 in West 2 mph 3 mph 61% 0 in 0 W/m2
22:44 65.7 °F 51.8 °F 30 in West 2 mph 3 mph 61% 0 in 0 W/m2
22:49 65.5 °F 51.6 °F 30 in SW 2 mph 4 mph 61% 0 in 0 W/m2
22:54 65.3 °F 52 °F 30 in WSW 2 mph 4 mph 62% 0 in 0 W/m2
22:59 65.3 °F 52 °F 30 in SW 0.9 mph 3 mph 62% 0 in 0 W/m2
23:04 65.1 °F 51.8 °F 30 in West 2 mph 3 mph 62% 0 in 0 W/m2
23:09 65.1 °F 52.2 °F 30 in West 0.9 mph 2 mph 63% 0 in 0 W/m2
23:14 64.8 °F 52.3 °F 30 in Calm   4 mph 64% 0 in 0 W/m2
23:19 64.6 °F 52.5 °F 30 in Calm     65% 0 in 0 W/m2
23:24 64 °F 52.5 °F 30 in Calm   1 mph 66% 0 in 0 W/m2
23:29 63.7 °F 52.5 °F 30 in Calm     67% 0 in 0 W/m2
23:34 63.1 °F 52 °F 30 in Calm     67% 0 in 0 W/m2
23:39 62.8 °F 52 °F 30 in Calm     68% 0 in 0 W/m2
23:44 62.2 °F 52 °F 30 in Calm   1 mph 69% 0 in 0 W/m2
23:49 61.9 °F 52 °F 30 in Calm     70% 0 in 0 W/m2
23:55 61.3 °F 51.8 °F 30 in Calm   1 mph 71% 0 in 0 W/m2
Juneau County Weather
Compliments of Weather Underground - 4 mb